AMF1990 KCRP-KSAT

Flight info

Callsign AMF1990
Flight time 0h 39m
Altitude 12000
Route ATHIS CARTI T499 LEMIG LEMIG2
Aircraft B350/L-SBGRW/S

Departure

Time 2026-04-22 15:36
Airport Corpus Christi International Airport (KCRP)

Arrival

Time 2026-04-22 16:16
Airport San Antonio International Airport (KSAT)
Time Latitude Longitude Altitude Speed Heading
2026-04-22 15:17 27.77730 -97.50742 44 ft 0 kts 46°
2026-04-22 15:32 27.77736 -97.50736 44 ft 4 kts 37°
2026-04-22 15:33 27.77786 -97.50738 44 ft 11 kts 339°
2026-04-22 15:33 27.77864 -97.50810 44 ft 16 kts 318°
2026-04-22 15:33 27.77922 -97.50877 44 ft 14 kts 298°
2026-04-22 15:33 27.77874 -97.50983 44 ft 18 kts 222°
2026-04-22 15:34 27.77786 -97.51088 44 ft 6 kts 226°
2026-04-22 15:34 27.77785 -97.51089 44 ft 0 kts 226°
2026-04-22 15:34 27.77776 -97.51101 44 ft 5 kts 233°
2026-04-22 15:35 27.77768 -97.51137 44 ft 9 kts 276°
2026-04-22 15:35 27.77743 -97.51233 43 ft 10 kts 220°
2026-04-22 15:35 27.77678 -97.51291 44 ft 9 kts 187°
2026-04-22 15:35 27.77643 -97.51277 44 ft 0 kts 140°
2026-04-22 15:36 27.77593 -97.51220 44 ft 49 kts 132°
2026-04-22 15:36 27.77124 -97.50697 117 ft 124 kts 135°
2026-04-22 15:36 27.76441 -97.49926 565 ft 154 kts 135°
2026-04-22 15:36 27.75682 -97.48952 1022 ft 173 kts 129°
2026-04-22 15:37 27.74830 -97.47980 1556 ft 178 kts 149°
2026-04-22 15:37 27.73627 -97.47665 2108 ft 184 kts 182°
2026-04-22 15:37 27.72432 -97.48249 2440 ft 204 kts 221°
2026-04-22 15:37 27.71944 -97.49818 2830 ft 220 kts 266°
2026-04-22 15:38 27.72224 -97.51466 3496 ft 220 kts 289°
2026-04-22 15:38 27.74424 -97.53861 4504 ft 228 kts 327°
2026-04-22 15:38 27.75826 -97.54700 5029 ft 230 kts 333°
2026-04-22 15:39 27.77271 -97.55517 5600 ft 232 kts 333°
2026-04-22 15:39 27.78702 -97.56323 6175 ft 232 kts 333°
2026-04-22 15:39 27.80140 -97.57130 6764 ft 231 kts 333°
2026-04-22 15:39 27.81612 -97.57855 7319 ft 230 kts 345°
2026-04-22 15:40 27.83193 -97.58105 7844 ft 231 kts 353°
2026-04-22 15:40 27.84785 -97.58299 8352 ft 232 kts 352°
2026-04-22 15:40 27.86405 -97.58487 8914 ft 234 kts 353°
2026-04-22 15:40 27.88012 -97.58680 9527 ft 233 kts 348°
2026-04-22 15:41 27.89429 -97.59476 10115 ft 229 kts 315°
2026-04-22 15:41 27.90194 -97.60999 10698 ft 227 kts 284°
2026-04-22 15:41 27.90448 -97.62738 11269 ft 227 kts 280°
2026-04-22 15:41 27.90781 -97.64481 11806 ft 226 kts 290°
2026-04-22 15:42 27.91591 -97.66039 11972 ft 242 kts 308°
2026-04-22 15:42 27.92755 -97.67505 11996 ft 259 kts 313°
2026-04-22 15:42 27.94047 -97.68986 11996 ft 268 kts 314°
2026-04-22 15:42 27.95382 -97.70486 11986 ft 273 kts 314°
2026-04-22 15:43 27.96753 -97.72020 11984 ft 275 kts 314°
2026-04-22 15:43 27.98119 -97.73547 11980 ft 277 kts 314°
2026-04-22 15:43 27.99482 -97.75072 11976 ft 278 kts 314°
2026-04-22 15:43 28.00867 -97.76621 11969 ft 278 kts 314°
2026-04-22 15:44 28.02247 -97.78166 11968 ft 279 kts 314°
2026-04-22 15:44 28.03628 -97.79713 11972 ft 280 kts 314°
2026-04-22 15:44 28.05007 -97.81258 11974 ft 280 kts 314°
2026-04-22 15:44 28.06385 -97.82801 11965 ft 276 kts 314°
2026-04-22 15:45 28.07574 -97.84467 11926 ft 267 kts 298°
2026-04-22 15:45 28.08377 -97.86307 11960 ft 258 kts 297°
2026-04-22 15:45 28.09154 -97.88100 11970 ft 257 kts 296°
2026-04-22 15:45 28.09957 -97.89970 11983 ft 264 kts 296°
2026-04-22 15:46 28.10763 -97.91850 11955 ft 271 kts 296°
2026-04-22 15:46 28.11589 -97.93780 11956 ft 275 kts 296°
2026-04-22 15:46 28.12428 -97.95740 11957 ft 277 kts 296°
2026-04-22 15:46 28.13271 -97.97710 11944 ft 279 kts 296°
2026-04-22 15:47 28.14117 -97.99689 11948 ft 281 kts 296°
2026-04-22 15:47 28.14975 -98.01698 11945 ft 282 kts 296°
2026-04-22 15:47 28.15850 -98.03696 11939 ft 282 kts 300°
2026-04-22 15:47 28.17149 -98.05316 11938 ft 283 kts 323°
2026-04-22 15:48 28.18920 -98.06317 11961 ft 282 kts 334°
2026-04-22 15:48 28.20698 -98.07243 11945 ft 280 kts 333°
2026-04-22 15:48 28.22458 -98.08189 11945 ft 278 kts 333°
2026-04-22 15:48 28.24204 -98.09142 11945 ft 277 kts 332°
2026-04-22 15:49 28.25943 -98.10099 11943 ft 276 kts 332°
2026-04-22 15:49 28.27650 -98.11040 11947 ft 275 kts 332°
2026-04-22 15:49 28.29379 -98.11996 11944 ft 274 kts 332°
2026-04-22 15:49 28.31106 -98.12952 11942 ft 274 kts 332°
2026-04-22 15:50 28.32809 -98.13895 11941 ft 273 kts 332°
2026-04-22 15:50 28.34533 -98.14850 11947 ft 274 kts 332°
2026-04-22 15:50 28.36236 -98.15794 11946 ft 274 kts 332°
2026-04-22 15:50 28.37939 -98.16738 11948 ft 275 kts 332°
2026-04-22 15:51 28.39663 -98.17694 11946 ft 275 kts 332°
2026-04-22 15:51 28.41379 -98.18645 11948 ft 276 kts 332°
2026-04-22 15:51 28.43113 -98.19608 11945 ft 276 kts 332°
2026-04-22 15:51 28.44836 -98.20564 11943 ft 276 kts 332°
2026-04-22 15:52 28.46588 -98.21538 11943 ft 276 kts 332°
2026-04-22 15:52 28.48317 -98.22498 11942 ft 276 kts 333°
2026-04-22 15:52 28.50034 -98.23452 11946 ft 276 kts 333°
2026-04-22 15:52 28.51759 -98.24411 11943 ft 277 kts 333°
2026-04-22 15:53 28.53493 -98.25375 11942 ft 277 kts 332°
2026-04-22 15:53 28.55228 -98.26341 11943 ft 277 kts 332°
2026-04-22 15:53 28.56963 -98.27306 11943 ft 277 kts 332°
2026-04-22 15:53 28.58692 -98.28270 11942 ft 277 kts 332°
2026-04-22 15:54 28.60429 -98.29237 11944 ft 277 kts 333°
2026-04-22 15:54 28.62161 -98.30203 11944 ft 278 kts 333°
2026-04-22 15:54 28.63910 -98.31177 11946 ft 278 kts 332°
2026-04-22 15:54 28.65639 -98.32142 11944 ft 278 kts 333°
2026-04-22 15:55 28.67379 -98.33112 11945 ft 278 kts 333°
2026-04-22 15:55 28.69114 -98.34081 11945 ft 278 kts 333°
2026-04-22 15:55 28.70866 -98.35059 11944 ft 278 kts 333°
2026-04-22 15:55 28.72596 -98.36025 11945 ft 278 kts 333°
2026-04-22 15:56 28.74341 -98.37000 11943 ft 278 kts 333°
2026-04-22 15:56 28.76096 -98.37980 11943 ft 278 kts 332°
2026-04-22 15:56 28.77839 -98.38955 11911 ft 279 kts 333°
2026-04-22 15:56 28.79569 -98.39921 11815 ft 275 kts 333°
2026-04-22 15:57 28.81270 -98.40872 11689 ft 271 kts 332°
2026-04-22 15:57 28.82976 -98.41827 11509 ft 270 kts 332°
2026-04-22 15:57 28.84648 -98.42763 11342 ft 269 kts 332°
2026-04-22 15:57 28.86341 -98.43712 11164 ft 269 kts 333°
2026-04-22 15:58 28.88023 -98.44654 10970 ft 270 kts 333°
2026-04-22 15:58 28.89709 -98.45599 10770 ft 271 kts 333°
2026-04-22 15:58 28.91407 -98.46551 10555 ft 272 kts 333°
2026-04-22 15:58 28.93114 -98.47509 10342 ft 273 kts 333°
2026-04-22 15:59 28.94818 -98.48465 10123 ft 274 kts 333°
2026-04-22 15:59 28.96520 -98.49420 9981 ft 272 kts 333°
2026-04-22 15:59 28.98311 -98.50072 9941 ft 268 kts 354°
2026-04-22 15:59 29.00166 -98.49995 9982 ft 271 kts
2026-04-22 16:00 29.02092 -98.49862 9974 ft 275 kts
2026-04-22 16:00 29.04001 -98.49740 9969 ft 278 kts
2026-04-22 16:00 29.05940 -98.49618 9964 ft 280 kts
2026-04-22 16:00 29.07901 -98.49499 9905 ft 279 kts
2026-04-22 16:01 29.09822 -98.49383 9709 ft 272 kts
2026-04-22 16:01 29.11701 -98.49271 9414 ft 266 kts
2026-04-22 16:01 29.13514 -98.49164 9067 ft 256 kts
2026-04-22 16:01 29.15285 -98.49059 8706 ft 255 kts
2026-04-22 16:02 29.17053 -98.48955 8348 ft 255 kts
2026-04-22 16:02 29.18843 -98.48849 7988 ft 255 kts
2026-04-22 16:02 29.20612 -98.48743 7645 ft 255 kts
2026-04-22 16:02 29.22386 -98.48638 7283 ft 256 kts
2026-04-22 16:03 29.24181 -98.48531 6918 ft 256 kts
2026-04-22 16:03 29.25964 -98.48426 6558 ft 257 kts
2026-04-22 16:03 29.27735 -98.48321 6201 ft 258 kts
2026-04-22 16:03 29.29536 -98.48214 5837 ft 260 kts
2026-04-22 16:04 29.31387 -98.48105 5502 ft 274 kts
2026-04-22 16:04 29.33343 -98.47988 5143 ft 280 kts
2026-04-22 16:04 29.35296 -98.47871 4859 ft 280 kts
2026-04-22 16:04 29.37227 -98.47756 4639 ft 276 kts
2026-04-22 16:05 29.38484 -98.47687 4587 ft 271 kts
2026-04-22 16:05 29.40973 -98.47558 4477 ft 268 kts
2026-04-22 16:05 29.42846 -98.47459 4351 ft 268 kts
2026-04-22 16:05 29.44692 -98.47363 4232 ft 269 kts
2026-04-22 16:06 29.46572 -98.47357 4085 ft 270 kts 351°
2026-04-22 16:06 29.48280 -98.48211 3979 ft 266 kts 321°
2026-04-22 16:06 29.49377 -98.49847 3965 ft 258 kts 291°
2026-04-22 16:06 29.49690 -98.51811 3988 ft 249 kts 271°
2026-04-22 16:07 29.49832 -98.53798 3979 ft 248 kts 273°
2026-04-22 16:07 29.50134 -98.55717 3954 ft 251 kts 289°
2026-04-22 16:07 29.51140 -98.57341 3989 ft 252 kts 312°
2026-04-22 16:07 29.52360 -98.58785 3977 ft 253 kts 313°
2026-04-22 16:08 29.53588 -98.60233 3978 ft 252 kts 313°
2026-04-22 16:08 29.54812 -98.61673 3978 ft 252 kts 313°
2026-04-22 16:08 29.56047 -98.63128 3977 ft 252 kts 313°
2026-04-22 16:08 29.57269 -98.64565 3976 ft 252 kts 313°
2026-04-22 16:09 29.58507 -98.66022 3976 ft 252 kts 312°
2026-04-22 16:09 29.59731 -98.67456 3979 ft 252 kts 312°
2026-04-22 16:09 29.60965 -98.68858 3957 ft 244 kts 319°
2026-04-22 16:09 29.62461 -98.69607 3965 ft 232 kts 352°
2026-04-22 16:10 29.64012 -98.69349 3898 ft 224 kts 26°
2026-04-22 16:10 29.65143 -98.68214 3707 ft 215 kts 62°
2026-04-22 16:10 29.65492 -98.67158 3580 ft 208 kts 81°
2026-04-22 16:10 29.65860 -98.65021 3316 ft 204 kts 82°
2026-04-22 16:11 29.65840 -98.63439 3189 ft 190 kts 113°
2026-04-22 16:11 29.65093 -98.62279 3185 ft 176 kts 137°
2026-04-22 16:11 29.64256 -98.61289 3176 ft 171 kts 135°
2026-04-22 16:11 29.63491 -98.60342 3161 ft 151 kts 135°
2026-04-22 16:12 29.62834 -98.59512 3149 ft 132 kts 134°
2026-04-22 16:12 29.62187 -98.58686 3057 ft 148 kts 134°
2026-04-22 16:12 29.61499 -98.57807 2883 ft 147 kts 134°
2026-04-22 16:12 29.60821 -98.56938 2697 ft 146 kts 134°
2026-04-22 16:13 29.60154 -98.56083 2520 ft 138 kts 134°
2026-04-22 16:13 29.59507 -98.55247 2345 ft 142 kts 134°
2026-04-22 16:13 29.58840 -98.54390 2152 ft 146 kts 134°
2026-04-22 16:13 29.58153 -98.53509 1951 ft 149 kts 133°
2026-04-22 16:14 29.57453 -98.52611 1748 ft 151 kts 133°
2026-04-22 16:14 29.56808 -98.51786 1557 ft 123 kts 134°
2026-04-22 16:14 29.56267 -98.51090 1401 ft 116 kts 133°
2026-04-22 16:14 29.55727 -98.50391 1270 ft 120 kts 133°
2026-04-22 16:15 29.55150 -98.49679 1146 ft 119 kts 135°
2026-04-22 16:15 29.54620 -98.49009 952 ft 111 kts 131°
2026-04-22 16:15 29.54133 -98.48377 801 ft 95 kts 133°
2026-04-22 16:15 29.53823 -98.47971 796 ft 53 kts 130°
2026-04-22 16:16 29.53674 -98.47835 796 ft 18 kts 159°
2026-04-22 16:16 29.53574 -98.47802 795 ft 0 kts 167°
2026-04-22 16:17 29.53561 -98.47798 795 ft 7 kts 165°
2026-04-22 16:17 29.53492 -98.47739 794 ft 16 kts 130°
2026-04-22 16:17 29.53404 -98.47626 792 ft 21 kts 131°
2026-04-22 16:17 29.53296 -98.47485 790 ft 24 kts 131°
2026-04-22 16:18 29.53176 -98.47330 789 ft 26 kts 131°
2026-04-22 16:18 29.53047 -98.47164 786 ft 28 kts 132°
2026-04-22 16:18 29.52908 -98.46991 783 ft 30 kts 129°
2026-04-22 16:18 29.52797 -98.46847 783 ft 13 kts 131°
2026-04-22 16:19 29.52760 -98.46756 782 ft 16 kts 72°
2026-04-22 16:19 29.52856 -98.46649 779 ft 22 kts 39°
2026-04-22 16:19 29.52990 -98.46516 777 ft 27 kts 41°
2026-04-22 16:19 29.53148 -98.46362 774 ft 31 kts 38°
2026-04-22 16:20 29.53301 -98.46210 774 ft 20 kts 40°
2026-04-22 16:20 29.53412 -98.46100 772 ft 23 kts 41°
2026-04-22 16:20 29.53394 -98.45942 770 ft 20 kts 130°
2026-04-22 16:20 29.53331 -98.45839 770 ft 15 kts 118°
2026-04-22 16:21 29.53345 -98.45715 770 ft 20 kts 43°
2026-04-22 16:21 29.53467 -98.45597 768 ft 25 kts 41°
2026-04-22 16:21 29.53548 -98.45506 766 ft 11 kts 50°
2026-04-22 16:21 29.53551 -98.45448 766 ft 8 kts 150°
2026-04-22 16:22 29.53522 -98.45415 767 ft 0 kts 311°